Weather History for Owatonna, MN

Change the Weather History Date:

Tuesday, January 15, 2013

  Actual Average Record
Temperature  
Mean Temperature 24 °F -  
Max Temperature 33 °F 22 °F 45 °F (1990)
Min Temperature 15 °F 1 °F -31 °F (1963)
Degree Days  
Heating Degree Days 41    
Moisture  
Dew Point 12 °F    
Average Humidity 59    
Maximum Humidity 68    
Minimum Humidity 48    
Precipitation  
Precipitation 0.00 in - - ()
Sea Level Pressure  
Sea Level Pressure 30.13 in    
Wind  
Wind Speed 12 mph (SSW)    
Max Wind Speed 21 mph    
Max Gust Speed 28 mph    
Visibility 10 miles    
Events      
Averages and records for this station are not official NWS values.
T = Trace of Precipitation, MM = Missing Value Source: NWS Daily Summary

Daily Weather History Graph

Daily Weather History Graph

Search for Another Location

Airport:

Trip Planner

Search our weather history database for the weather conditions in past years. The results will help you decide how hot, cold, wet, or windy it might be!

Date:

Astronomy

Jan. 15, 2013 Rise Set
Actual Time 7:44 AM CST 5:00 PM CST
Civil Twilight 7:12 AM CST 5:32 PM CST
Nautical Twilight 6:36 AM CST 6:08 PM CST
Astronomical Twilight 6:02 AM CST 6:43 PM CST
Moon 9:39 AM CST (1/15) 10:03 PM CST (1/15)
Length of Visible Light 10h 20m
Length of Day
9h 16m
Waxing Crescent, 19% of the Moon is Illuminated
Jan 15
Waxing Crescent
Jan 18
First Quarter
Jan 26
Full
Feb 3
Last Quarter
Feb 10
New

Hourly Weather History & Observations

Time (CST) Temp. Windchill Dew Point Humidity Pressure Visibility Wind Dir Wind Speed Gust Speed Precip Events Conditions
12:14 AM 17.6 °F 5.0 °F 8.6 °F 68% 30.26 in 10.0 mi South 11.5 mph - N/A   Clear
12:33 AM 17.6 °F 4.3 °F 8.6 °F 68% 30.26 in 10.0 mi South 12.7 mph - N/A   Clear
12:53 AM 17.6 °F 5.0 °F 8.6 °F 68% 30.26 in 10.0 mi South 11.5 mph - N/A   Clear
1:13 AM 17.6 °F 5.7 °F 8.6 °F 68% 30.25 in 10.0 mi South 10.4 mph - N/A   Clear
1:33 AM 17.6 °F 6.4 °F 8.6 °F 68% 30.25 in 10.0 mi South 9.2 mph - N/A   Clear
1:54 AM 17.6 °F 6.4 °F 8.6 °F 68% 30.25 in 10.0 mi South 9.2 mph - N/A   Clear
2:14 AM 17.6 °F 6.4 °F 6.8 °F 63% 30.25 in 10.0 mi South 9.2 mph - N/A   Clear
2:33 AM 17.6 °F 6.4 °F 8.6 °F 68% 30.25 in 10.0 mi South 9.2 mph - N/A   Clear
2:53 AM 17.6 °F 6.4 °F 8.6 °F 68% 30.25 in 10.0 mi South 9.2 mph - N/A   Clear
3:14 AM 17.6 °F 6.4 °F 8.6 °F 68% 30.24 in 10.0 mi South 9.2 mph - N/A   Clear
3:33 AM 17.6 °F 6.4 °F 8.6 °F 68% 30.24 in 10.0 mi South 9.2 mph - N/A   Clear
3:53 AM 19.4 °F 7.9 °F 8.6 °F 63% 30.23 in 10.0 mi South 10.4 mph - N/A   Clear
4:14 AM 19.4 °F 7.2 °F 8.6 °F 63% 30.22 in 10.0 mi South 11.5 mph - N/A   Clear
4:33 AM 17.6 °F 5.7 °F 6.8 °F 63% 30.22 in 10.0 mi South 10.4 mph - N/A   Clear
4:53 AM 17.6 °F 6.4 °F 6.8 °F 63% 30.22 in 10.0 mi SSW 9.2 mph - N/A   Clear
5:14 AM 15.8 °F 8.6 °F 6.8 °F 68% 30.22 in 10.0 mi SSW 4.6 mph - N/A   Clear
5:33 AM 15.8 °F 6.1 °F 6.8 °F 68% 30.22 in 10.0 mi South 6.9 mph - N/A   Clear
6:13 AM 17.6 °F 7.3 °F 6.8 °F 63% 30.22 in 10.0 mi South 8.1 mph - N/A   Clear
6:33 AM 17.6 °F 7.3 °F 6.8 °F 63% 30.21 in 10.0 mi South 8.1 mph - N/A   Clear
6:53 AM 15.8 °F 4.2 °F 6.8 °F 68% 30.21 in 10.0 mi South 9.2 mph - N/A   Scattered Clouds
7:13 AM 17.6 °F 7.3 °F 8.6 °F 68% 30.21 in 10.0 mi SSW 8.1 mph - N/A   Mostly Cloudy
7:33 AM 19.4 °F 10.4 °F 8.6 °F 63% 30.21 in 10.0 mi South 6.9 mph - N/A   Overcast
7:53 AM 17.6 °F 9.3 °F 8.6 °F 68% 30.22 in 10.0 mi South 5.8 mph - N/A   Overcast
8:13 AM 17.6 °F 9.3 °F 8.6 °F 68% 30.21 in 10.0 mi SSW 5.8 mph - N/A   Overcast
8:33 AM 17.6 °F 7.3 °F 8.6 °F 68% 30.21 in 10.0 mi South 8.1 mph - N/A   Scattered Clouds
8:53 AM 19.4 °F 7.2 °F 8.6 °F 63% 30.22 in 10.0 mi South 11.5 mph - N/A   Clear
9:13 AM 21.2 °F 11.7 °F 10.4 °F 63% 30.21 in 10.0 mi South 8.1 mph - N/A   Clear
9:34 AM 21.2 °F 12.6 °F 10.4 °F 63% 30.21 in 10.0 mi South 6.9 mph - N/A   Clear
9:53 AM 21.2 °F 11.7 °F 12.2 °F 68% 30.21 in 10.0 mi South 8.1 mph - N/A   Clear
10:13 AM 24.8 °F 16.1 °F 12.2 °F 59% 30.20 in 10.0 mi SSW 8.1 mph - N/A   Clear
10:33 AM 26.6 °F 18.2 °F 12.2 °F 55% 30.20 in 10.0 mi South 8.1 mph - N/A   Clear
10:54 AM 28.4 °F 18.0 °F 12.2 °F 51% 30.20 in 10.0 mi SSW 12.7 mph - N/A   Clear
11:14 AM 28.4 °F 16.6 °F 12.2 °F 51% 30.20 in 10.0 mi SSW 16.1 mph - N/A   Clear
11:33 AM 30.2 °F 19.3 °F 14.0 °F 51% 30.18 in 10.0 mi SSW 15.0 mph - N/A   Clear
11:53 AM 30.2 °F 19.3 °F 14.0 °F 51% 30.17 in 10.0 mi SSW 15.0 mph - N/A   Clear
12:13 PM 30.2 °F 19.3 °F 15.8 °F 55% 30.15 in 10.0 mi SW 15.0 mph 21.9 mph N/A   Clear
12:34 PM 30.2 °F 18.9 °F 15.8 °F 55% 30.14 in 10.0 mi SW 16.1 mph 23.0 mph N/A   Clear
12:53 PM 32.0 °F 21.2 °F 15.8 °F 51% 30.13 in 10.0 mi SW 16.1 mph 21.9 mph N/A   Clear
1:13 PM 33.8 °F 22.8 °F 15.8 °F 48% 30.13 in 10.0 mi SSW 18.4 mph - N/A   Clear
1:33 PM 33.8 °F 22.8 °F 15.8 °F 48% 30.12 in 10.0 mi SSW 18.4 mph 24.2 mph N/A   Clear
1:53 PM 33.8 °F 22.8 °F 15.8 °F 48% 30.11 in 10.0 mi SSW 18.4 mph 23.0 mph N/A   Clear
2:13 PM 33.8 °F 22.2 °F 15.8 °F 48% 30.10 in 10.0 mi SSW 20.7 mph - N/A   Clear
2:34 PM 33.8 °F 22.2 °F 15.8 °F 48% 30.09 in 10.0 mi SSW 20.7 mph 25.3 mph N/A   Clear
2:53 PM 33.8 °F 23.5 °F 15.8 °F 48% 30.09 in 10.0 mi SSW 16.1 mph - N/A   Clear
3:13 PM 33.8 °F 22.8 °F 15.8 °F 48% 30.08 in 10.0 mi SSW 18.4 mph 23.0 mph N/A   Clear
3:34 PM 33.8 °F 23.9 °F 17.6 °F 52% 30.08 in 10.0 mi SSW 15.0 mph - N/A   Clear
3:53 PM 33.8 °F 22.8 °F 15.8 °F 48% 30.07 in 10.0 mi SSW 18.4 mph - N/A   Clear
4:53 PM 30.2 °F 19.8 °F 15.8 °F 55% 30.06 in 10.0 mi SSW 13.8 mph - N/A   Clear
5:14 PM 30.2 °F 20.2 °F 15.8 °F 55% 30.06 in 10.0 mi SSW 12.7 mph - N/A   Clear
5:34 PM 28.4 °F 18.5 °F 15.8 °F 59% 30.06 in 10.0 mi South 11.5 mph - N/A   Clear
5:53 PM 28.4 °F 19.1 °F 15.8 °F 59% 30.06 in 10.0 mi South 10.4 mph - N/A   Clear
6:13 PM 28.4 °F 18.0 °F 15.8 °F 59% 30.05 in 10.0 mi South 12.7 mph - N/A   Clear
6:33 PM 28.4 °F 18.5 °F 15.8 °F 59% 30.04 in 10.0 mi South 11.5 mph - N/A   Clear
6:54 PM 28.4 °F 18.5 °F 15.8 °F 59% 30.03 in 10.0 mi South 11.5 mph - N/A   Clear
7:13 PM 28.4 °F 18.0 °F 15.8 °F 59% 30.03 in 10.0 mi South 12.7 mph 17.3 mph N/A   Clear
7:34 PM 28.4 °F 17.5 °F 15.8 °F 59% 30.01 in 10.0 mi South 13.8 mph - N/A   Clear
7:53 PM 26.6 °F 15.2 °F 15.8 °F 64% 30.00 in 10.0 mi South 13.8 mph - N/A   Clear
8:13 PM 26.6 °F 15.2 °F 15.8 °F 64% 29.99 in 10.0 mi South 13.8 mph - N/A   Clear
8:33 PM 26.6 °F 14.3 °F 15.8 °F 64% 29.98 in 10.0 mi South 16.1 mph 19.6 mph N/A   Clear
8:53 PM 26.6 °F - 14.0 °F 59% 29.96 in 10.0 mi Calm Calm - N/A   Clear
9:14 PM 26.6 °F 13.8 °F 12.2 °F 55% 29.95 in 10.0 mi South 17.3 mph 23.0 mph N/A   Clear
9:33 PM 26.6 °F 13.1 °F 12.2 °F 55% 29.94 in 10.0 mi South 19.6 mph 23.0 mph N/A   Clear
9:53 PM 26.6 °F 13.4 °F 12.2 °F 55% 29.92 in 10.0 mi South 18.4 mph 27.6 mph N/A   Clear
10:13 PM 26.6 °F 13.4 °F 12.2 °F 55% 29.91 in 10.0 mi South 18.4 mph 26.5 mph N/A   Clear
10:33 PM 26.6 °F 13.8 °F 12.2 °F 55% 29.90 in 10.0 mi South 17.3 mph - N/A   Clear
10:54 PM 26.6 °F 12.7 °F 12.2 °F 55% 29.89 in 10.0 mi SSW 20.7 mph - N/A   Clear
11:14 PM 26.6 °F 12.7 °F 12.2 °F 55% 29.89 in 10.0 mi SSW 20.7 mph 26.5 mph N/A   Clear
11:33 PM 26.6 °F 12.7 °F 12.2 °F 55% 29.87 in 10.0 mi SSW 20.7 mph 27.6 mph N/A   Clear